TIMESTAMP,CO2_1_1_1,H2O_1_1_1,TAU_1_1_1,TAU_SSITC_TEST_1_1_1,H_1_1_1,H_SSITC_TEST_1_1_1,LE_1_1_1,LE_SSITC_TEST_1_1_1,FC_1_1_1,FC_SSITC_TEST_1_1_1,WD_0_0_1,WS_0_0_1,WS_MAX_0_0_1,U_SIGMA_0_0_1,V_SIGMA_0_0_1,W_SIGMA_0_0_1,USTAR_0_0_1,MO_LENGTH_0_0_1,ZL_0_0_1,FETCH_MAX_0_0_1,FETCH_70_0_0_1,FETCH_80_0_0_1,FETCH_90_0_0_1,PA_0_0_1,RH_0_0_1,TA_0_0_1,VPD_0_0_1,T_SONIC_0_0_1,T_SONIC_SIGMA_0_0_1
[yyyymmddHHMMSS],[mmolCO2 mol-1],[mmolH2O mol-1],[kg m-1 s-2],[#],[W m-2],[#],[W m-2],[#],[umolCO2 m-2 s-1],[#],[Decimal degrees],[m s-1],[m s-1],[m s-1],[m s-1],[m s-1],[m s-1],[m],[#],[m],[m],[m],[m],[kPa],[%],[deg C],[hPa],[deg C],[deg C]
20240620003000,412.24622793058052,12.846243500319831,0.26971765150012239,0,-17.572132150304210,1,48.117141242868755,0,-2.6142672618431004,0,313.14138706086453,3.1493327821133388,6.9664563999684361,1.1098999843510051,0.96719309168513257,0.59019455468138582,0.48599968699644208,551.20380808015238,3.4470008591154629E-002,107.19327328312450,195.98349110259500,234.54218396774542,293.61898253959441,95.387093395833332,65.713333333333338,16.447666666666692,6.3951982511590728,17.247611256069717,0.25964974089051507
20240620010000,413.16590958069776,12.814927244217568,0.15883432428982885,0,-15.813352703694637,0,31.136994154787455,0,-0.84338255976341037,1,320.47995826793135,2.2507590753249449,5.2312220719443143,0.84799402290507564,0.62896018943272436,0.42533755100335729,0.37238188473812717,275.61494914936731,6.8936754187825647E-002,112.57935481804266,205.83096595102532,246.32709628114642,308.37229430740416,95.430594554298153,68.801000000000002,15.697333333333347,5.5471023251716085,16.566900807538673,0.14826936000070196
20240620013000,414.96263092989864,12.783051505676831,0.10217612130927844,0,-10.591869409605611,1,25.634557379693135,0,0.46299825468849543,1,321.71412686860674,1.8672941362962214,4.1655509181248966,0.70523945353375395,0.49482826651650491,0.32512052027000471,0.29843728528929170,211.82346088464135,8.9697335321828983E-002,116.92351409903740,213.77347461522450,255.83225060717501,320.27161960094776,95.440549034939238,70.491333333333330,15.281666666666695,5.1085518819439697,16.163746767679925,0.12739632058812791
20240620020000,416.78760077409606,12.704534546050102,5.0106219761716690E-002,0,-8.4540051933867169,0,16.953486256570113,0,0.70797693004370632,1,332.85458949803558,1.7478184707947302,3.3104430548144372,0.53380918603401184,0.34914574210891014,0.23328124981777323,0.20887442987941687,91.000039475541669,0.20879111821821442,114.61969674495721,209.56136172710674,250.79142726874051,313.96110694708534,95.461719350043410,71.185000000000002,15.036999999999978,4.9106007345172547,15.929238843282064,0.10589400816879313
20240620023000,419.21491562947512,12.609271158223960,3.4038076680211686E-002,0,-10.116926693545054,0,7.1867884139353402,0,1.5932523298460231,0,334.27003947343184,1.8491812815749427,3.1958613341888058,0.42120588687206167,0.38164673503561075,0.21295030994705835,0.17205823002596002,42.511689548675037,0.44693589461424205,159.74077382218385,1514.0000000000000,2798.0000000000000,7643.0000000000000,95.489869521050352,71.734666666666669,14.805333333333351,4.7455744404224793,15.734413149515831,0.12270332030502490
20240620030000,420.54354032093994,12.623983127924019,2.1699087542624399E-002,0,-12.027414038249049,0,12.385494566668541,0,2.6413547206103352,0,340.03261798776634,1.4938480331913657,2.8924083291420568,0.35808443907339355,0.26701946268703369,0.17298867394837547,0.13729072375738643,18.172169659628988,1.0455548432507817,172.35300727458900,1536.0000000000000,2788.0000000000000,7383.0000000000000,95.528624411458338,72.997333333333330,14.559333333333313,4.4621695566890871,15.499012251112163,0.12494316575154982
20240620033000,422.04388721686718,12.762492994724054,1.4870045796929640E-002,1,-2.2381578227126409,2,-4.1159615652381918,2,-0.34315043525500855,2,336.93721691917710,1.6370070992333614,2.4040844864459818,0.34488130791945698,0.21227486722673244,0.12245433727369744,0.11359108126817341,55.323086033207552,0.34343709583726573,244.24830554444006,2420.0000000000000,4529.0000000000000,-9999.,95.559598788046429,74.926666666666662,14.329666666666640,4.0822723541264558,15.310210876498786,0.14640480263880590
20240620040000,420.75767547497696,12.759637589202519,9.0706503637573120E-003,0,-1.1588212862835416,0,-9.0175847894378709,1,-1.3343777694205761,1,352.07785359940522,1.2348021568068044,2.4309243690770668,0.29572239628881691,0.20441492800885971,0.10961565855327034,8.8687984088900496E-002,50.860849881312660,0.37356827588091479,234.99463114588667,2330.0000000000000,4362.0000000000000,-9999.,95.572780175998275,75.644999999999996,14.180999999999983,3.9273259296196898,15.180876507229300,0.20480707799823381
20240620043000,419.21730226462665,12.421933523599153,4.2173668735068157E-002,1,-22.203795821171294,1,-0.91368865810278754,2,5.0506891380381518,1,339.29940074094236,2.1743268735975243,3.6442976964820555,0.53765514694164984,0.30829600654536471,0.15422888081216893,0.19113271820073055,26.568365385744048,0.71513620518765331,184.08383544676784,1736.0000000000000,3203.0000000000000,8729.0000000000000,95.575432381293410,74.902333333333331,13.920000000000016,3.9791467078147775,14.942709447224956,0.26832428586529988
20240620050000,423.07145085430778,12.338815991584580,3.8455417621572986E-002,0,-19.410361402736690,0,8.5249698145600892,1,4.6066409266460342,0,332.48678163616216,3.0349828685896618,4.5242138103361729,0.44310010671483796,0.36213489525324438,0.20883691563168222,0.18240694681911565,26.415819400343047,0.71926597135023029,349.36811131324703,3619.0000000000000,6858.0000000000000,-9999.,95.574060436148713,76.001999999999995,13.592333333333329,3.7246033733681498,14.590597661732090,0.29409245872168671
20240620053000,426.53847400422438,12.102272613317171,2.8559645328370620E-002,1,-13.685021028672486,0,-2.4345630046701463,2,4.3814597222268272,0,330.47573245319836,2.5581827473376619,3.9177737148151199,0.32289957872404418,0.31010510482987119,0.17127885350375882,0.15708992742062991,23.931275613688197,0.79394012699984917,343.97061834198882,3519.0000000000000,6647.0000000000000,-9999.,95.578124364583331,76.247000000000000,13.246666666666670,3.6044385218822912,14.206266487121638,0.20179708018710296
20240620060000,425.87068082696146,11.510957229447728,5.0116827396772194E-002,0,-12.316479462313419,1,21.706854260291532,1,3.4575703151753387,0,334.00395984722104,3.0987757769345126,4.9909267381971398,0.63174376447884262,0.40324271569153464,0.23663778014355749,0.20806774210077730,61.779271753620684,0.30754651941792227,112.96695879176566,206.53962963493797,247.17518571555948,309.43400164133601,95.575936801649306,72.614666666666665,13.226666666666688,4.1502108977315082,14.132518026563901,0.29874378900091869
20240620063000,427.11879488758728,11.099476173282870,4.7654545953234789E-002,0,-25.181418390098326,0,12.710497865904122,0,3.7735290458656352,0,342.05064824197188,2.1367367960249450,4.1312580278426561,0.51894765031363321,0.31763286305918076,0.23245015271007924,0.20271318495978247,27.942041141080288,0.67997895730195135,112.22681269667665,205.18640651562552,245.55572325974970,307.40662681906809,95.579447950303816,72.111333333333334,12.776999999999987,4.1040033453856113,13.642594027201312,0.26533377506888917
20240620070000,432.31978472603078,11.432402528038454,1.4040004898528335E-002,0,-5.6964063111923240,0,-17.999405898419340,1,-0.97161617645012077,2,2.3228762846383120,1.2874232688137410,3.3547420963026471,0.42838593533907843,0.32830819168284675,0.18355457360055399,0.10992097952785641,19.696454926882751,0.96464059499701171,197.83841179943275,1818.0000000000000,3330.0000000000000,8956.0000000000000,95.590218119357644,77.132666666666665,12.203666666666663,3.2407431770845916,13.025699122958770,0.28912868586218055
20240620073000,431.76080408143429,11.436518436951589,2.1425512707254880E-002,0,-13.308213390328195,0,5.1831799695279521,1,4.6220772069113760,0,13.893448947641588,1.8399262182336642,3.4428025413312549,0.44412601224758103,0.40042389353712532,0.20198319728127015,0.13574840867461493,15.879384423058454,1.1965199338842192,262.34445383373810,2428.0000000000000,4455.0000000000000,-9999.,95.591124540147575,78.007666666666665,12.038000000000011,3.0829175224600771,12.860706590440543,0.25436570733019925
20240620080000,432.64134321156524,11.749758284414083,1.3224117499277785E-002,0,-4.0389636014753689,0,4.9553864739183036,2,1.5479508454424962,0,21.021014601188142,2.0841013042210208,3.7072420157690265,0.37672101829095461,0.28252428020409487,0.16346851726770870,0.10663090082948441,25.363207993744314,0.74911659458402258,454.20827201779355,4877.0000000000000,9340.0000000000000,-9999.,95.607462717664944,80.562333333333328,11.961666666666645,2.7111234811995248,12.832608642578123,0.20339389646765679
20240620083000,429.89258457623924,11.504579070601583,1.7382691962602514E-002,0,-6.5746702339324248,0,0.77972078368867082,0,1.9584432942177579,0,23.365821888846000,2.1972398015808281,3.4855036960597472,0.36465446830242260,0.29558697332723455,0.16173436979290104,0.12222621203406667,23.467865429412960,0.80961773268849346,405.37104150484595,4244.0000000000000,8069.0000000000000,-9999.,95.622350311857531,79.166333333333341,11.909333333333336,2.8958216274805184,12.764145317317173,0.21912664135695625
20240620090000,430.21550551680730,11.727560251597341,2.3546947310162304E-002,0,-13.261390953625455,0,-5.5225901688078496,1,5.1933805083520053,0,36.745778609859769,2.0823438363439197,3.8118626995646601,0.38787445760556616,0.34816766825417006,0.19778356817770743,0.14226354280226708,18.349158720530635,1.0354698157764120,298.41518090979508,2882.0000000000000,5354.0000000000000,-9999.,95.638650057942712,80.441666666666663,11.960666666666668,2.7277739208627736,12.838501596238928,0.28720079940817428
20240620093000,427.07865041176308,11.396871768516950,2.2259142958667127E-002,0,-13.741951468150322,0,3.5415390830960067,1,4.7456368181011994,0,30.792369848239247,2.2829248080956059,3.9224130515934026,0.36805047437808353,0.34236879762089428,0.18719942398362438,0.13833610246279568,16.282559210096032,1.1668927319618783,374.46825323665115,3672.0000000000000,6850.0000000000000,-9999.,95.658195001736104,77.337000000000003,12.127000000000010,3.1956146280052509,12.977759945339585,0.25973640008550153
20240620100000,427.63419904663868,11.359802506357282,1.2738119193627382E-002,0,-7.9628931178148203,0,0.86118196435975336,0,2.5749700333041834,0,27.067322124257402,2.3676889625582405,3.5130408775436370,0.29655298299241778,0.24574445564219194,0.13492491136371698,0.10461501476712169,12.154363355533178,1.5632246168903943,680.97441348213215,6938.0000000000000,-9999.,-9999.,95.676800962239582,77.734666666666669,12.002666666666642,3.1139265683521264,12.840114637586794,0.21949381361745376
20240620103000,428.11337921202312,11.400441587349215,3.6297621512012920E-002,0,-17.033435860113656,0,3.8079023802879828,1,4.0696490896826756,0,22.448041211260261,2.4029662173789412,4.4472797400009760,0.49211654732059551,0.32630280742125578,0.22241784596582831,0.17647354772570534,27.278252355633107,0.69652556007959932,250.16420632389620,2473.0000000000000,4624.0000000000000,-9999.,95.694889707465279,79.826666666666668,11.657333333333327,2.7577606415755871,12.485348982069240,0.23775979981199147
20240620110000,426.49329737125430,11.536765524502798,6.3121100508762393E-002,0,-7.8455690675251102,0,2.5834311850025617,1,2.9554371228876288,0,19.050028317769488,1.7523285719351767,3.8896404537980009,0.62841716710698658,0.37527937044848952,0.26999460125070318,0.23271592786605641,135.86533715556467,0.13984435175136067,111.18129359869619,203.27486415330355,243.26809526678187,304.54278803168523,95.745398074652783,80.114999999999995,11.790666666666652,2.7423962901153507,12.617149012247751,0.22921712094763116
20240620113000,425.68957813348430,11.586552336300691,0.12608448871966599,0,6.1468010527407833,1,36.961279581823099,0,2.6282791175480673,1,18.629965111642520,1.6535235602663307,5.0063063874236864,0.66542316797370948,0.42923903975198552,0.34773563059642931,0.32919659037673810,-490.91690710906244,-3.8703087477447475E-002,119.84496924912160,219.11482637990932,262.22448446922687,328.27393786617256,95.754188006944460,77.719999999999999,12.317999999999984,3.1813458112829518,13.095638545566146,0.14805255771540893
20240620120000,423.24105745090219,11.645373879576782,0.20812853580067942,0,-3.1261771747644511,2,60.400388894498626,1,2.6877610948422337,2,36.259404242376064,2.1843778305907202,5.7377083327384408,0.94563705690742472,0.57260857552899747,0.44791133747528844,0.42329231908932496,2051.7696240401751,9.2602989036297215E-003,119.67779140201021,218.80917195675005,261.85869418993417,327.81601184275166,95.730230631510409,76.157333333333327,12.700666666666677,3.4910986348666189,13.484285133361823,0.11427088176179538
20240620123000,419.70855277165708,11.378965069379584,0.20096961202488259,0,2.3589012472382636,0,55.238845817543542,0,-3.3366368466925915,0,40.613744978207677,2.7156350114739221,6.6659348999382431,1.2781415415909583,0.66633943793607475,0.46009927727408312,0.41616149845500189,-2583.8108139945939,-7.3534795570523353E-003,115.55351954850296,211.26868763949605,252.83466032874804,316.51899227935968,95.724373306785026,72.944000000000003,13.004666666666651,4.0412506799140901,13.760510885801637,0.16970572075124443
20240620130000,420.55485636976590,11.529718780896635,0.13588780700665715,1,53.258508120585574,0,70.481555304867371,0,-11.019261527204023,0,11.988679574699603,1.7423907213415113,5.4648123723917665,0.78056159671141734,0.47315010442029093,0.38698032170488139,0.34233006516676701,-63.737006880279409,-0.29809997252755693,113.51671869892495,207.54476608215452,248.37807732744704,310.93987919910791,95.800363388020841,71.971333333333334,13.423999999999978,4.3027413540843105,14.223639127943272,0.37282120306524674
20240620133000,418.93928948836668,11.758137370987129,0.26546979384300823,0,79.880673515471202,0,86.147053644515410,0,-10.289164576855880,0,33.337258285851789,2.4915627735857018,5.8105224153207882,1.0790660744836931,0.77559061434287024,0.54763283252946549,0.47952411446690546,-116.79819974604423,-0.16267374018873523,112.59307474673696,205.85605035642533,246.35711590776370,308.40987531767053,95.792266217447903,67.873666666666665,14.628666666666675,5.3326773367445934,15.362139824761357,0.50471671330027768
20240620140000,416.25808615364662,11.938099226306669,0.13696448258470612,0,24.674643123446284,0,75.059775013387693,0,-10.452733269475745,0,45.253454982388035,2.3120064334941217,7.1667229636985077,0.95873206169484648,0.67937129899767612,0.45341023597020158,0.34475577171582272,-140.52915941433994,-0.13520325659943563,100.57060901717662,183.87514863400838,220.05159054666461,275.47847909276970,95.797885297743051,66.585666666666668,15.162666666666667,5.7406310312310618,15.869374245537699,0.13988957311711353
20240620143000,413.78348371997498,12.001889307571403,0.22757359221054313,0,51.326540284115474,0,95.016125249751354,0,-15.064989695950118,0,53.614296560945292,2.5033316186211945,5.8019531974629031,1.0278564047390644,0.78199465576463745,0.52160907350439001,0.44461819263251345,-144.91560043245980,-0.13111079789408353,110.19669590943056,201.47470555599909,241.11376519272946,301.84582242107803,95.799577276475702,65.712999999999994,15.451333333333309,6.0007824443528373,16.149061117384235,0.21941206013410050
20240620150000,410.34203005803374,12.539279180823131,0.21957690563342602,0,65.839029731647031,0,119.90031119831060,0,-16.911474819091357,0,56.772656743499965,1.9461658870379546,5.7436862195918268,0.90601416163464166,0.70419630942752398,0.48725679780113479,0.43710570576208563,-107.35599403873312,-0.17698126844361353,114.79362089148189,209.87935053721532,251.17197865896517,314.43751212977588,95.803014249999990,66.753000000000000,15.890666666666675,5.9848035530922088,16.618296379937078,0.33846365143896967
20240620153000,410.91935295647522,12.005054993868248,0.25256312761768934,0,66.482116231957903,0,133.06531084995837,0,-15.509400370463517,0,54.132247472801694,2.5187264840668422,6.4052681495484523,1.0077675816781124,0.97201952220997700,0.57428663085536646,0.46911706371809225,-131.37730735354458,-0.14462162745404583,106.50669763650009,194.72821184849411,233.03993530338161,291.73834547512240,95.762146734809022,62.514000000000003,16.229666666666674,6.8955088279220291,16.879905578613261,0.26504694643558963
20240620160000,409.86521933902713,12.236974399802584,0.28260722475767946,0,69.653504134500452,0,148.84273931847770,0,-15.831313202382495,0,31.796313646848120,1.8685818059726225,5.4696784189918199,1.0129514317355033,0.81877781377078684,0.54274681193083496,0.49663036947891365,-148.76325080631835,-0.12771971503054180,116.62823246218484,213.23360560781018,255.18616528976850,319.46279745082762,95.742615419410185,62.201666666666668,16.605666666666650,7.1214174896040481,17.275048243107278,0.24777318184599262
20240620163000,408.79311695853181,12.317098413412563,0.34010658998397669,0,131.00581324210478,0,144.87825677764533,0,-18.396602027189399,0,44.293835606040830,2.5299828822847563,6.5178995857421160,1.2395814840200317,0.99153084013717696,0.60125348994509697,0.54536651486712429,-104.71830457755253,-0.18143914835757233,115.81360672979140,211.74420995744330,253.40373909323625,317.23141136315610,95.711304254340277,60.699333333333335,17.088666666666654,7.6349135055174795,17.717396353827553,0.44424193346369623
20240620170000,408.64776281286464,12.219484730503822,0.65563643718965814,0,84.323364675980017,0,154.00133748765847,0,-18.140401375499110,0,72.768714543513909,3.2568913456621300,9.2985287542543684,1.5411991607545112,1.3851956119372317,0.87068145749996340,0.75846184268707550,-437.36023592977375,-4.3442449585313465E-002,112.12809733267228,205.00592334657497,245.33973100244077,307.13623014349093,95.630642775607640,57.453000000000003,17.819666666666649,8.6561082607831974,18.456468124389630,0.33854780933292689
20240620173000,407.65966699473648,12.205915600403054,0.24251212676459083,0,36.956504985878112,0,123.00410974269680,0,-15.624005239444028,0,80.011408727617351,1.8207545910883478,5.9298803796817214,0.89626521862380215,0.78434343898207182,0.52554872783448747,0.46158784207379028,-225.03924370569447,-8.4429718510999494E-002,112.86726399937950,206.35735575843282,246.95705043878047,309.16092215968229,95.690962532118050,55.411999999999999,18.387666666666689,9.4009540921093251,19.035872640821651,0.25242337941217646
20240620180000,405.89336758907325,12.540906842331097,0.11345447705850473,1,71.595734053788817,0,158.72234067647327,0,-18.401415108903869,0,80.850115065830849,1.3326184763098428,3.9209678943777004,0.65270866734717237,0.72905368066386800,0.41561234128010532,0.31608882446677772,-37.297333555089267,-0.50941979463321252,100.58922562485731,183.90918573031115,220.09232425774334,275.52947286540228,95.666641449652772,54.907333333333334,18.962666666666678,9.8555647548225149,19.568722613016803,0.32331348614831823
20240620183000,406.27870885716840,12.806646443570964,0.12977718715959158,0,7.8625549731157198,0,76.345181919516762,0,-8.8061049305132553,0,105.54943956169247,2.0145822253812602,4.3430005728675454,0.67564784392365496,0.60158035807809795,0.39217621815853843,0.33800953547710028,-415.14996145028243,-4.5766594638779468E-002,111.17651548976792,203.26612824628302,243.25764061726008,304.52970005107784,95.613460259548603,57.042999999999999,18.678666666666686,9.2236437562654032,19.382911017523895,9.2478101097533599E-002
20240620190000,405.77773511995809,12.953444285439872,0.12787935493971359,0,-1.1551936791930968,0,69.105988781421800,0,-8.2694066864203268,0,103.46500140211552,1.8879960946735992,4.4327529331429085,0.72552613151286582,0.52702351278549275,0.37577270509640348,0.33545936479770777,2762.2368146739964,6.8784833722674178E-003,114.34749397474557,209.06368824853902,250.19583922247494,313.21550138820947,95.614868276525669,58.180000000000000,18.545666666666648,8.9050729882400947,19.270054925500517,6.3146740659007383E-002
20240620193000,405.19324442536777,13.212855083010828,0.10486165083831148,0,-4.5604711242213467,2,75.145795836727643,0,-7.6646532463748764,0,70.893684670360315,1.6473921025137261,4.7214146511985335,0.73047846564467678,0.61605194661749618,0.40336748485825430,0.30378519406433552,519.53979235528550,3.6570827258226482E-002,99.803890892411943,182.47334336973464,218.37398767138910,273.37831936452380,95.588479170138896,59.643000000000001,18.461333333333357,8.5482673761798829,19.238022204081233,7.0599057590429629E-002
20240620200000,405.26557308095403,12.833356970712664,4.1454328247904841E-002,0,6.4827030880691927,0,90.682134842971990,0,-10.575164184758311,0,33.393773649376953,0.78857068417659926,3.5018336258948977,0.53139262426235223,0.67210088849350469,0.28675111718586976,0.19101505599263177,-90.883081306720413,-0.20905981318873959,36.821190126675866,141.00000000000000,204.00000000000000,365.00000000000000,95.629716632812503,57.231333333333332,18.661999999999978,9.1736352882172998,19.377223882887108,9.8720171570469403E-002
20240620203000,394.22630998026335,15.089045870712463,0.23523602180793118,0,33.746878188528228,1,83.028116528337051,1,-11.231365128505862,1,343.03505048159616,2.1470149428145460,6.1770911926774117,0.91623183596572777,0.73698885845168038,0.50455470414607950,0.45420923173367828,-234.77737350201045,-8.0927730456262642E-002,115.11530212885303,210.46748643409836,251.87582711553014,315.31864687569902,95.608105961371535,73.280333333333331,17.302666666666653,5.2615847796049415,18.227473809136427,0.50204575773748950
20240620210000,393.62343512164705,15.299029667590462,0.11726411134949208,0,6.0624288421258248,0,21.815429639875415,0,-3.6498284890123549,0,348.64170663536783,1.8699920087726130,4.3877370527661501,0.68600501120136848,0.55714375395455984,0.37257042267681828,0.32025731293198895,-458.12755888863126,-4.1473165347424151E-002,110.93981684904433,202.83336763988075,242.73973669999768,303.88134580337982,95.609634081814235,78.185333333333332,16.499333333333311,4.0823037068120422,17.585317270914743,0.15364565924199572
20240620213000,396.92954493825152,14.959913032280499,0.14684975340105605,0,-1.8951379572243505,2,24.820884108164236,0,-0.70983168893281312,2,353.82526956950846,1.7113996343132971,5.1721874258514573,0.78827130438143134,0.60322354216638663,0.38816268539915427,0.35801576581636257,2047.1879904455091,9.2810235741297119E-003,117.37229442356093,214.59398817959686,256.81419578164025,321.50089843752500,95.605539161024311,79.309333333333328,15.923333333333346,3.7323192778274872,16.979334635416762,0.20750301957649014
20240620220000,398.64434943741026,14.881283724119895,0.38272255435340730,0,24.382765725851606,0,48.994778785844673,0,-6.1463259789751570,0,348.47206603808490,2.4352856380374512,7.3844750238320751,1.2063515613110387,0.73513069016553279,0.58596300616795283,0.57725496205829641,-666.98453806110365,-2.8486417474132476E-002,123.72369477607982,226.20637369924748,270.71125540401687,338.89836799965479,95.610250423681720,82.489999999999995,15.228333333333353,3.0209683438844377,16.261091528051793,0.24131671003784699
20240620223000,399.05472005042537,14.557042395392660,0.23099621301837250,0,-9.9577598282868944,1,43.830685888364968,1,-4.8732440799770105,0,357.34803126395434,2.0695219113526204,7.1153503651351091,1.0929243664829369,0.68369870682947254,0.46230543606828750,0.44801448155520002,763.41039236044310,2.4888317201515353E-002,122.10834400421625,223.25299729857613,267.17681815527106,334.47367197580644,95.603159958550350,83.673333333333332,14.663999999999987,2.7162661959066146,15.679336554633210,0.11884618112485358
20240620230000,399.03150515418980,14.842488360408854,0.12848712428954506,0,-5.9771244850457155,0,13.876515597594160,0,-4.2963902832634995,0,15.320742429931528,1.3668907244896877,5.0352575650366678,0.71856485600410291,0.51199385806033526,0.40272049574071078,0.33409932615451637,527.31894755362873,3.6031324283236923E-002,107.83317517981965,197.15343585599615,235.94230902950719,295.37177297203630,95.564720962239576,86.416666666666671,14.459000000000003,2.2301272293110812,15.474889897664411,6.2564715908899407E-002